Location: Johnson City
(36.3130°N, 82.3540°W)
Time: 03:26:30
(UTC-04:00)

Tianhe-1 - Visible Passes

Search period start: 15 May 2021 00:00
Search period end: 25 May 2021 00:00
Orbit: 359 x 385 km, 41.5° (Epoch: 14 May)

Date Brightness Start Highest point End Pass type
(mag) Time Alt. Az. Time Alt. Az. Time Alt. Az.
15 May 1.4 21:55:52 10° WSW 21:58:57 63° NNW 22:01:07 18° ENE visible
15 May 4.5 23:33:00 10° WNW 23:33:07 11° WNW 23:33:07 11° WNW visible
16 May 1.0 20:52:14 10° WSW 20:55:19 72° SSE 20:58:26 10° ENE visible
16 May 2.6 22:29:09 10° WNW 22:32:03 34° N 22:32:57 28° NNE visible
17 May 2.1 21:25:17 10° W 21:28:18 46° NNW 21:31:21 10° ENE visible
17 May 3.3 23:02:25 10° WNW 23:04:30 26° NNW 23:04:30 26° NNW visible
18 May 2.8 21:58:37 10° WNW 22:01:26 30° N 22:03:55 12° ENE visible
18 May 4.3 23:35:25 10° WNW 23:35:53 13° NW 23:35:53 13° NW visible
19 May 2.5 22:31:47 10° WNW 22:34:38 32° N 22:35:11 29° NNE visible
20 May 2.8 21:28:01 10° WNW 21:30:49 29° N 21:33:37 10° ENE visible
20 May 3.1 23:04:39 10° WNW 23:06:22 28° NW 23:06:22 28° NW visible
21 May 2.3 22:01:03 10° WNW 22:03:58 36° N 22:05:34 21° ENE visible
22 May 2.7 20:57:22 10° WNW 21:00:10 30° N 21:02:59 10° ENE visible
22 May 1.3 22:33:53 10° WNW 22:36:42 66° NNW 22:36:42 66° NNW visible
23 May 1.8 21:30:16 10° WNW 21:33:17 46° NNE 21:35:52 13° E visible
23 May 3.6 23:06:55 10° W 23:07:49 17° W 23:07:49 17° W visible
24 May 1.0 22:03:07 10° WNW 22:06:12 72° SSW 22:07:00 45° SE visible
